FW3746 Weather Reports


Display with metric or nautical units.
time (UTC)temp
F
wind
direction
speed
MPH
gust
MPH
rain 1hr
in
rain 24hr
in
rain mn
in
humidity
%
barometer
mb
20260904111547 75 87 0.0 0.0 0.00 0.00 0.00 75 1009.3
20260904110051 75 87 0.0 1.0 0.00 0.00 0.00 74 1009.4
20260904104546 75 78 0.0 0.0 0.00 0.00 0.00 75 1009.2
20260904103045 75 78 0.0 1.0 0.00 0.00 0.00 75 1009.1
20260904101514 75 96 0.0 1.0 0.00 0.00 0.00 74 1009.2
20260904100014 75 101 0.0 1.0 0.00 0.00 0.00 74 1009.1
20260904094511 74 101 0.0 0.0 0.00 0.00 0.00 76 1009.1
20260904093012 75 101 0.0 0.0 0.00 0.00 0.00 74 1009.0
20260904091519 75 101 0.0 1.0 0.00 0.00 0.00 74 1008.9
20260904090010 74 129 0.0 1.0 0.00 0.00 0.00 76 1009.0
20260904084508 74 129 0.0 1.0 0.00 0.00 0.00 77 1009.0
20260904083006 74 248 0.0 1.0 0.00 0.00 0.00 77 1009.1
20260904081505 75 88 0.0 0.0 0.00 0.00 0.00 75 1009.1
20260904080003 75 88 0.0 0.0 0.00 0.00 0.00 74 1009.3
20260904074600 75 88 0.0 1.0 0.00 0.00 0.00 73 1009.2
20260904073059 75 50 0.0 0.0 0.00 0.00 0.00 74 1009.2
20260904071557 75 50 0.0 0.0 0.00 0.00 0.00 74 1009.2
20260904070055 76 49 0.0 0.0 0.00 0.00 0.00 72 1009.3
20260904064556 76 49 0.0 1.0 0.00 0.00 0.00 72 1009.3
20260904063052 76 49 0.0 1.0 0.00 0.00 0.00 73 1009.2
20260904061552 77 43 0.0 1.0 0.00 0.00 0.00 72 1009.2
20260904060051 77 99 0.0 1.0 0.00 0.00 0.00 71 1009.1
20260904054547 77 99 0.0 2.0 0.00 0.00 0.00 71 1009.0
20260904053047 76 119 0.0 0.0 0.00 0.00 0.00 73 1008.9
20260904051544 77 119 0.0 0.0 0.00 0.00 0.00 71 1009.0
20260904050040 78 119 0.0 0.0 0.00 0.00 0.00 69 1009.1
20260904044510 78 121 0.0 1.0 0.00 0.00 0.00 68 1009.2
20260904043008 78 123 0.0 4.0 0.00 0.00 0.00 68 1009.3
20260904041504 78 122 0.0 1.0 0.00 0.00 0.00 67 1009.3
20260904040006 79 122 0.0 6.0 0.00 0.00 0.00 66 1009.2
20260904034501 80 102 0.0 3.0 0.00 0.00 0.00 65 1009.1
20260904033002 80 90 2.0 6.0 0.00 0.00 0.00 64 1009.0
20260904031501 81 69 3.0 9.0 0.00 0.00 0.00 63 1008.8
20260904030109 81 65 2.0 9.0 0.00 0.00 0.00 60 1008.5
20260904024558 81 130 3.0 7.0 0.00 0.00 0.00 60 1007.9
20260904023058 81 200 4.0 7.0 0.00 0.00 0.00 59 1007.9
20260904021558 82 163 3.0 8.0 0.00 0.00 0.00 59 1007.7
20260904020057 82 179 2.0 8.0 0.00 0.00 0.00 60 1007.6
20260904014612 82 215 4.0 8.0 0.00 0.00 0.00 60 1007.5
20260904013101 82 178 4.0 9.0 0.00 0.00 0.00 59 1007.3
20260904011554 83 190 6.0 14.0 0.00 0.00 0.00 60 1007.1
20260904010025 84 223 7.0 11.0 0.00 0.00 0.00 57 1007.0
20260904004524 85 217 4.0 12.0 0.00 0.00 0.00 56 1007.1
20260904003022 86 263 6.0 13.0 0.00 0.00 0.00 56 1006.9
20260904001521 87 192 5.0 11.0 0.00 0.00 0.00 52 1006.7
20260904000021 86 250 3.0 11.0 0.00 0.00 0.00 54 1006.9
20260903234526 86 208 5.0 12.0 0.00 0.00 0.00 55 1007.0
20260903233018 88 267 2.0 6.0 0.00 0.00 0.00 48 1006.8
20260903231518 89 284 2.0 8.0 0.00 0.00 0.00 48 1006.7
20260903230017 89 280 3.0 8.0 0.00 0.00 0.00 47 1006.7
20260903224524 90 277 1.0 5.0 0.00 0.00 0.00 46 1006.8
20260903223017 91 300 1.0 5.0 0.00 0.00 0.00 45 1006.7
20260903221512 90 269 1.0 4.0 0.00 0.00 0.00 46 1006.8
20260903220011 91 273 2.0 5.0 0.00 0.00 0.00 45 1007.0
20260903214513 92 270 3.0 9.0 0.00 0.00 0.00 43 1007.3
20260903213006 93 331 0.0 5.0 0.00 0.00 0.00 43 1007.3
20260903211503 91 99 0.0 9.0 0.00 0.00 0.00 44 1007.7
20260903210113 92 200 2.0 6.0 0.00 0.00 0.00 44 1007.8
20260903210002 92 109 2.0 6.0 0.00 0.00 0.00 44 1007.7
20260903204559 92 244 1.0 5.0 0.00 0.00 0.00 45 1008.0
20260903203056 90 295 1.0 7.0 0.00 0.00 0.00 47 1008.1
20260903201553 88 250 0.0 4.0 0.00 0.00 0.00 50 1008.5
20260903200050 90 270 0.0 5.0 0.00 0.00 0.00 47 1008.8
20260903194547 89 246 2.0 6.0 0.00 0.00 0.00 49 1009.0
20260903193042 89 289 1.0 5.0 0.00 0.00 0.00 50 1009.3
20260903191550 87 350 1.0 7.0 0.00 0.00 0.00 50 1009.4
20260903190038 87 159 1.0 5.0 0.00 0.00 0.00 52 1009.8
20260903184543 86 305 2.0 7.0 0.00 0.00 0.00 52 1010.1
20260903183036 86 207 2.0 5.0 0.00 0.00 0.00 52 1010.1
20260903181532 86 202 1.0 4.0 0.00 0.00 0.00 54 1010.3
20260903180043 85 248 1.0 6.0 0.00 0.00 0.00 54 1010.6
20260903174528 85 247 2.0 6.0 0.00 0.00 0.00 56 1010.7
20260903173024 83 221 2.0 8.0 0.00 0.00 0.00 57 1010.7
20260903171523 83 143 3.0 6.0 0.00 0.00 0.00 59 1010.7
20260903170022 83 265 3.0 6.0 0.00 0.00 0.00 58 1010.7
20260903164521 82 111 2.0 6.0 0.00 0.00 0.00 60 1010.7
20260903163051 82 272 1.0 4.0 0.00 0.00 0.00 62 1010.7
20260903161554 81 166 1.0 5.0 0.00 0.00 0.00 64 1010.7
20260903160047 80 178 1.0 5.0 0.00 0.00 0.00 64 1010.7
20260903154547 80 222 1.0 5.0 0.00 0.00 0.00 65 1010.7
20260903153047 79 224 0.0 4.0 0.00 0.00 0.00 66 1010.7
20260903151546 79 223 1.0 4.0 0.00 0.00 0.00 67 1010.8
20260903150019 78 178 0.0 4.0 0.00 0.00 0.00 68 1010.7
20260903144515 78 205 2.0 4.0 0.00 0.00 0.00 69 1010.7
20260903143011 77 153 0.0 2.0 0.00 0.00 0.00 72 1010.7
20260903141512 77 152 1.0 3.0 0.00 0.00 0.00 73 1010.7
20260903140017 76 163 0.0 4.0 0.00 0.00 0.00 74 1010.6
20260903134509 76 237 0.0 1.0 0.00 0.00 0.00 73 1010.6
20260903133009 76 171 1.0 4.0 0.00 0.00 0.00 73 1010.4
20260903131505 76 237 0.0 4.0 0.00 0.00 0.00 72 1010.2
20260903130004 76 211 2.0 6.0 0.00 0.00 0.00 72 1010.1
20260903124504 76 213 1.0 4.0 0.00 0.00 0.00 71 1010.1
20260903123003 76 236 0.0 1.0 0.00 0.00 0.00 71 1009.8
20260903121600 76 225 1.0 3.0 0.00 0.00 0.00 72 1009.7
20260903120100 76 129 0.0 2.0 0.00 0.00 0.00 72 1009.6
20260903114558 76 163 0.0 1.0 0.00 0.00 0.00 73 1009.4
20260903113059 76 142 0.0 1.0 0.00 0.00 0.00 71 1009.5